Terminal Aerodrome Forecast
Issued by NWS Grand Forks, ND

Home | Current Version | Previous Version | Graphics & Text | Print | Product List | Glossary On
Versions: 1 2 3 4 5 6 7 8 9 10 11 12 13 14 15 16 17 18 19 20
061
FTUS43 KFGF 272106 AAA
TAFGFK
TAF AMD
KGFK 272106Z 2721/2818 VRB03KT P6SM OVC006
     FM280100 VRB04KT P6SM SCT006 BKN100
     FM281000 03005KT 2SM BR SCT002
     FM281700 04006KT P6SM BKN008=

USA.gov is the U.S. government's official web portal to all federal, state and local government web resources and services.